[[{"header":{"parameterUnit":"m.s-1","parameterCategory":1,"la1":30.2991,"la2":30.254,"lo1":-89.0895,"lo2":-89.0444,"dy":0.0017,"dx":0.0017,"nx":28,"ny":28,"refTime":"2025-01-20T03:00:00:Z","depth":0,"parameterNumber":2,"parameterNumberName":"U-component_of_WINDS"},"data":[0,0,0,0,0,0,0,0,0,0,0,0,0,0,0,0,0,0,0,0,0,0,0,0,0,0,0,0,0,0,0,0,0,0,0,0,0,0,0,0,0,0,0,0,0,0,0,0,0,0,0,0,0,0,0,0,0,0,-0.1934,-0.1935,0,-0.2061,-0.2062,-0.2064,-0.2063,-0.2062,-0.206,-0.2059,-0.2189,-0.2194,-0.2199,0,0,0,0,0,0,0,0,0,0,0,0,0,-0.1691,-0.1695,-0.1934,-0.1936,-0.1937,-0.2061,-0.2063,-0.2064,-0.2064,-0.2062,-0.206,-0.2058,-0.2187,-0.2193,-0.2199,0,0,0,0,0,0,0,0,0,0,0,0,0,-0.1805,-0.1697,-0.1934,-0.1952,-0.1955,-0.206,-0.2063,-0.2065,-0.2064,-0.2062,-0.2059,-0.2057,-0.2185,-0.2193,-0.22,-0.2296,0,0,-0.2223,-0.2226,0,0,0,0,0,0,0,0,-0.1799,-0.1814,-0.1948,-0.1951,-0.1954,-0.2044,-0.2025,-0.2142,-0.2065,-0.2023,-0.2059,-0.2056,-0.2143,-0.2154,-0.2183,-0.2302,-0.2308,-0.2224,-0.2228,-0.2231,-0.2234,0,0,0,0,0,0,0,-0.1791,-0.1809,-0.1984,-0.1949,-0.1954,-0.1954,-0.1967,-0.2047,-0.2095,-0.2026,-0.2026,-0.2041,-0.2144,-0.2176,-0.2186,-0.231,-0.2223,-0.223,-0.2235,-0.2238,-0.2516,-0.2519,0,0,0,0,0,0,-0.1779,-0.1802,-0.198,-0.1988,-0.1869,-0.196,-0.1975,-0.2018,-0.2094,-0.2103,-0.2043,-0.2041,-0.2164,-0.2177,-0.219,-0.231,-0.2231,-0.2238,-0.2243,-0.2513,-0.2517,-0.252,0,0,0,0,0,0,-0.1774,-0.1795,-0.1975,-0.1895,-0.1918,-0.1967,-0.2015,-0.2021,-0.2053,-0.2107,-0.2116,-0.2067,-0.2163,-0.218,-0.227,-0.2315,-0.2242,-0.2249,-0.251,-0.2514,-0.2518,-0.2549,0,0,0,0,0,0,-0.1767,-0.1793,-0.183,-0.1896,-0.1922,-0.2053,-0.2017,-0.2026,-0.2066,-0.2064,-0.2132,-0.214,-0.2162,-0.2259,-0.2278,-0.2324,-0.2255,-0.2506,-0.2512,-0.2517,-0.2545,-0.2554,-0.2562,0,0,0,0,0,-0.1758,-0.1834,-0.1832,-0.1854,-0.197,-0.2056,-0.2071,-0.2094,-0.2069,-0.2108,-0.2142,-0.2138,-0.2306,-0.2268,-0.2289,-0.2338,-0.2504,-0.251,-0.2517,-0.2541,-0.2552,-0.2562,0,0,0,0,0,0,-0.1772,-0.1843,-0.1842,-0.1941,-0.1992,-0.2055,-0.2104,-0.2105,-0.2165,-0.216,-0.2186,-0.2201,-0.2292,-0.2324,-0.228,-0.2436,-0.2402,-0.2413,-0.2413,-0.2424,-0.2433,-0.2425,-0.2261,0,0,0,0,0,-0.1786,-0.185,-0.1908,-0.199,-0.2016,-0.2055,-0.2093,-0.2107,-0.2161,-0.2183,-0.2224,-0.2277,-0.2342,-0.2384,-0.2447,-0.2548,-0.2564,-0.2592,-0.26,-0.2607,-0.2618,-0.2675,-0.2689,-0.2541,-0.2541,-0.2541,0,0,-0.1817,-0.1864,-0.1902,-0.1994,-0.2035,-0.2101,-0.2074,-0.2144,-0.2194,-0.2194,-0.2283,-0.2314,-0.2375,-0.2472,-0.2516,-0.2501,-0.2661,-0.2616,-0.2621,-0.2628,-0.2683,-0.2697,-0.271,-0.2546,-0.2545,-0.2544,0,0,-0.1908,-0.1948,-0.2022,-0.2064,-0.2127,-0.2153,-0.217,-0.2233,-0.2255,-0.2344,-0.2346,-0.2404,-0.2515,-0.2559,-0.2595,-0.2702,-0.2701,-0.2721,-0.2768,-0.2824,-0.2836,-0.2847,-0.2887,-0.2901,-0.273,-0.273,-0.273,0,-0.1939,-0.2038,-0.206,-0.2131,-0.2172,-0.2174,-0.2249,-0.2289,-0.2369,-0.2397,-0.2378,-0.2517,-0.2558,-0.2666,-0.2692,-0.2721,-0.2743,-0.2715,-0.2832,-0.2843,-0.2853,-0.2892,-0.2907,-0.2732,-0.2732,-0.2732,-0.2732,0,-0.2074,-0.2143,-0.2195,-0.2273,-0.2319,-0.2391,-0.2424,-0.2468,-0.2476,-0.2504,-0.2595,-0.2644,-0.2717,-0.2743,-0.2752,-0.2853,-0.2841,-0.2827,-0.2794,-0.2869,-0.2907,-0.2921,-0.2736,-0.2735,-0.2734,-0.2734,0,0,-0.218,-0.2268,-0.2287,-0.2323,-0.2392,-0.2446,-0.2518,-0.259,-0.2628,-0.2682,-0.2745,-0.2838,-0.2826,-0.2867,-0.2881,-0.2929,-0.3013,-0.2909,-0.2911,-0.2929,-0.313,-0.3143,-0.3159,-0.3011,-0.3014,-0.3017,-0.3126,0,-0.228,-0.2411,-0.2432,-0.2546,-0.2611,-0.2613,-0.2676,-0.2726,-0.2753,-0.2812,-0.2841,-0.2908,-0.2885,-0.2911,-0.2958,-0.2993,-0.3054,-0.2985,-0.3072,-0.3075,-0.306,-0.3178,-0.3192,-0.3293,-0.314,-0.3142,-0.3144,0,-0.2416,-0.2475,-0.2596,-0.2657,-0.2685,-0.2742,-0.2809,-0.2865,-0.2921,-0.2937,-0.2983,-0.2991,-0.3067,-0.3028,-0.3133,-0.3086,-0.3122,-0.3144,-0.3148,-0.316,-0.3117,-0.3197,-0.3325,-0.3342,-0.3167,-0.3165,-0.3163,0,-0.2485,-0.2593,-0.2681,-0.2711,-0.2783,-0.2824,-0.2856,-0.2909,-0.2951,-0.3009,-0.3037,-0.3103,-0.314,-0.3191,-0.3217,-0.3186,-0.3322,-0.3284,-0.3339,-0.3339,-0.3371,-0.3369,-0.3511,-0.3389,-0.3388,-0.3388,-0.3388,0,-0.2597,-0.2672,-0.2713,-0.2767,-0.2851,-0.2873,-0.2955,-0.2986,-0.3033,-0.3094,-0.3098,-0.3154,-0.3183,-0.3244,-0.3263,-0.335,-0.3365,-0.3382,-0.3387,-0.3384,-0.3382,-0.341,-0.3405,-0.3392,-0.3391,-0.339,-0.339,0,-0.269,-0.272,-0.2815,-0.2876,-0.2893,-0.2952,-0.3004,-0.3057,-0.3083,-0.3159,-0.3178,-0.322,-0.3291,-0.3321,-0.3408,-0.3422,-0.3521,-0.3519,-0.3503,-0.3506,-0.356,-0.3556,-0.3728,-0.3753,-0.3611,-0.3612,-0.3613,0,-0.2761,-0.2819,-0.2886,-0.2926,-0.296,-0.3025,-0.3068,-0.3091,-0.3136,-0.3204,-0.3248,-0.332,-0.3379,-0.3493,-0.3531,-0.3598,-0.36,-0.3656,-0.3611,-0.3606,-0.3605,-0.3603,-0.361,-0.3665,-0.3667,-0.3668,-0.3669,0,-0.2886,-0.2898,-0.2959,-0.3026,-0.3077,-0.3131,-0.3184,-0.3217,-0.3248,-0.3298,-0.3371,-0.3417,-0.3506,-0.3578,-0.3647,-0.368,-0.3681,-0.3682,-0.3699,-0.3698,-0.3688,-0.3697,-0.3529,-0.3679,-0.3678,-0.3677,-0.3677,-0.3676,-0.2972,-0.3024,-0.308,-0.3148,-0.319,-0.3239,-0.3292,-0.3325,-0.3386,-0.3462,-0.3471,-0.355,-0.3604,-0.3698,-0.3733,-0.3796,-0.3782,-0.3805,-0.3812,-0.3819,-0.3824,-0.3674,-0.3808,-0.3808,-0.3807,-0.3807,-0.3807,0,-0.31,-0.3135,-0.3198,-0.3272,-0.3326,-0.3319,-0.3377,-0.3423,-0.3493,-0.3543,-0.3601,-0.3686,-0.3755,-0.3798,-0.3868,-0.391,-0.3912,-0.3928,-0.3927,-0.3935,-0.3831,-0.3811,-0.3925,-0.3925,-0.3925,-0.3925,-0.3925,-0.3925,-0.3173,-0.3261,-0.328,-0.3389,-0.3424,-0.3502,-0.3535,-0.3581,-0.3621,-0.3716,-0.3774,-0.3801,-0.3849,-0.3922,-0.3986,-0.3996,-0.4023,-0.4041,-0.4051,-0.3954,-0.3942,-0.393,-0.3912,-0.4045,-0.4046,-0.415,-0.4151,-0.4152]},{"header":{"parameterUnit":"m.s-1","parameterCategory":1,"la1":30.2991,"la2":30.254,"lo1":-89.0895,"lo2":-89.0444,"dy":0.0017,"dx":0.0017,"nx":28,"ny":28,"refTime":"2025-01-20T03:00:00:Z","depth":0,"parameterNumber":3,"parameterNumberName":"V-component_of_WINDS"},"data":[0,0,0,0,0,0,0,0,0,0,0,0,0,0,0,0,0,0,0,0,0,0,0,0,0,0,0,0,0,0,0,0,0,0,0,0,0,0,0,0,0,0,0,0,0,0,0,0,0,0,0,0,0,0,0,0,0,0,-8.0666,-8.0669,0,-8.0918,-8.0921,-8.0924,-8.0841,-8.0836,-8.0831,-8.0825,-8.1078,-8.1089,-8.1101,0,0,0,0,0,0,0,0,0,0,0,0,0,-8.0109,-8.0119,-8.0666,-8.0669,-8.0673,-8.0918,-8.0921,-8.0924,-8.0842,-8.0836,-8.0829,-8.0823,-8.1074,-8.1088,-8.1102,0,0,0,0,0,0,0,0,0,0,0,0,0,-8.0355,-8.0123,-8.0666,-8.0661,-8.0663,-8.0917,-8.0921,-8.0925,-8.0844,-8.0836,-8.0827,-8.082,-8.107,-8.1087,-8.1104,-8.1376,0,0,-8.1158,-8.1166,0,0,0,0,0,0,0,0,-8.0341,-8.0375,-8.0659,-8.0662,-8.0665,-8.084,-8.0817,-8.1076,-8.0846,-8.0775,-8.0825,-8.0816,-8.1005,-8.1027,-8.1092,-8.1388,-8.1398,-8.116,-8.117,-8.1178,-8.1183,0,0,0,0,0,0,0,-8.0324,-8.0364,-8.0766,-8.0663,-8.0667,-8.0645,-8.0671,-8.0866,-8.0932,-8.0781,-8.0775,-8.0806,-8.1005,-8.1076,-8.1098,-8.1402,-8.1159,-8.1175,-8.1186,-8.1193,-8.1932,-8.1941,0,0,0,0,0,0,-8.0306,-8.035,-8.0758,-8.0773,-8.048,-8.0661,-8.069,-8.0792,-8.093,-8.0943,-8.0813,-8.0802,-8.1049,-8.1077,-8.1106,-8.1434,-8.1178,-8.1194,-8.1204,-8.1923,-8.1934,-8.1944,0,0,0,0,0,0,-8.0294,-8.0343,-8.0747,-8.056,-8.061,-8.068,-8.0794,-8.0801,-8.0872,-8.0955,-8.0966,-8.0873,-8.1044,-8.1081,-8.131,-8.1441,-8.1202,-8.1218,-8.1912,-8.1926,-8.1939,-8.2091,0,0,0,0,0,0,-8.0278,-8.0339,-8.0445,-8.0563,-8.0621,-8.0949,-8.0802,-8.0812,-8.0903,-8.089,-8.1014,-8.1027,-8.1041,-8.1284,-8.1327,-8.1461,-8.1232,-8.1901,-8.1919,-8.1935,-8.2074,-8.2108,-8.2137,0,0,0,0,0,-8.0259,-8.0476,-8.045,-8.05,-8.0754,-8.0957,-8.0989,-8.1002,-8.0914,-8.102,-8.1073,-8.1023,-8.142,-8.1308,-8.1356,-8.1498,-8.1893,-8.1914,-8.1933,-8.206,-8.2101,-8.2136,0,0,0,0,0,0,-8.0369,-8.0492,-8.0464,-8.0727,-8.0833,-8.0942,-8.1076,-8.1045,-8.1176,-8.1159,-8.1167,-8.1196,-8.1431,-8.1486,-8.136,-8.1767,-8.1643,-8.1674,-8.1723,-8.1762,-8.1793,-8.1775,-8.1247,0,0,0,0,0,-8.0424,-8.0581,-8.0678,-8.09,-8.0955,-8.1007,-8.1095,-8.1097,-8.1205,-8.1249,-8.1318,-8.1424,-8.1573,-8.167,-8.1811,-8.2081,-8.2107,-8.2202,-8.2233,-8.2258,-8.2285,-8.2432,-8.2476,-8.2011,-8.201,-8.201,0,0,-8.054,-8.0626,-8.0724,-8.0925,-8.1007,-8.1167,-8.1045,-8.1219,-8.1337,-8.1274,-8.1495,-8.155,-8.1668,-8.1919,-8.2033,-8.1973,-8.2419,-8.2284,-8.2304,-8.2317,-8.2458,-8.2502,-8.2541,-8.2024,-8.2022,-8.202,0,0,-8.0832,-8.0913,-8.1107,-8.1192,-8.1318,-8.1351,-8.1397,-8.1513,-8.1547,-8.1769,-8.1725,-8.1864,-8.212,-8.2207,-8.2284,-8.2608,-8.2567,-8.2653,-8.2816,-8.2959,-8.2996,-8.3029,-8.3145,-8.3186,-8.268,-8.268,-8.268,0,-8.0959,-8.12,-8.121,-8.139,-8.1479,-8.1431,-8.1627,-8.1707,-8.1872,-8.1934,-8.1865,-8.2185,-8.2261,-8.2531,-8.261,-8.2674,-8.2727,-8.264,-8.299,-8.3023,-8.3053,-8.3164,-8.3208,-8.269,-8.2689,-8.2688,-8.2687,0,-8.135,-8.1518,-8.1659,-8.1822,-8.1927,-8.2114,-8.2151,-8.2255,-8.2247,-8.2287,-8.2512,-8.2602,-8.2761,-8.2824,-8.2817,-8.3094,-8.3053,-8.2987,-8.2862,-8.3108,-8.3212,-8.3254,-8.2704,-8.27,-8.2697,-8.2695,0,0,-8.172,-8.1886,-8.1938,-8.2011,-8.2146,-8.2275,-8.2458,-8.2615,-8.2705,-8.2819,-8.2973,-8.319,-8.3131,-8.3218,-8.322,-8.3345,-8.3597,-8.3264,-8.3267,-8.3323,-8.3907,-8.3957,-8.4006,-8.357,-8.3578,-8.3584,-8.3898,0,-8.2024,-8.235,-8.2364,-8.2659,-8.2814,-8.2769,-8.2929,-8.3028,-8.307,-8.3205,-8.325,-8.3404,-8.3313,-8.3366,-8.3488,-8.354,-8.3714,-8.3518,-8.3712,-8.3719,-8.3685,-8.4061,-8.4114,-8.4406,-8.3938,-8.3945,-8.395,0,-8.2423,-8.2552,-8.2864,-8.2977,-8.3042,-8.3186,-8.333,-8.3461,-8.3571,-8.3593,-8.3691,-8.3675,-8.386,-8.3728,-8.3984,-8.385,-8.393,-8.3967,-8.3979,-8.3998,-8.3851,-8.4091,-8.4499,-8.4543,-8.4014,-8.4009,-8.4005,0,-8.2663,-8.2914,-8.3134,-8.3197,-8.3334,-8.3436,-8.3497,-8.36,-8.3693,-8.3819,-8.3879,-8.4024,-8.4103,-8.4215,-8.4237,-8.4139,-8.4493,-8.4363,-8.4516,-8.4515,-8.4594,-8.4589,-8.5021,-8.4643,-8.4642,-8.4641,-8.4641,0,-8.3002,-8.3194,-8.3243,-8.3378,-8.3592,-8.3605,-8.3816,-8.3869,-8.3961,-8.4104,-8.4073,-8.4207,-8.4228,-8.4367,-8.4385,-8.4594,-8.463,-8.4651,-8.4654,-8.4656,-8.4653,-8.4709,-8.469,-8.4653,-8.4651,-8.4648,-8.4646,0,-8.3307,-8.3348,-8.3584,-8.3694,-8.3726,-8.3879,-8.3972,-8.41,-8.4138,-8.432,-8.4363,-8.4422,-8.4584,-8.4617,-8.4807,-8.4819,-8.5069,-8.505,-8.5033,-8.5031,-8.5182,-8.5168,-8.5667,-8.5733,-8.5311,-8.5315,-8.5318,0,-8.3522,-8.3669,-8.3795,-8.389,-8.3957,-8.411,-8.4205,-8.4223,-8.4323,-8.446,-8.4572,-8.473,-8.4859,-8.5119,-8.5178,-8.5324,-8.5309,-8.5474,-8.5331,-8.5328,-8.5313,-8.5305,-8.532,-8.5502,-8.5506,-8.551,-8.5513,0,-8.3898,-8.3911,-8.4051,-8.4199,-8.4314,-8.443,-8.454,-8.4619,-8.4651,-8.4765,-8.4932,-8.5031,-8.5227,-8.5385,-8.5531,-8.5591,-8.5559,-8.5557,-8.5601,-8.5604,-8.5588,-8.56,-8.5109,-8.5546,-8.5543,-8.554,-8.5539,-8.5537,-8.4166,-8.4295,-8.4404,-8.4561,-8.4646,-8.475,-8.4876,-8.493,-8.507,-8.5232,-8.5233,-8.5415,-8.552,-8.5713,-8.5782,-8.5924,-8.5872,-8.5934,-8.595,-8.5966,-8.598,-8.5565,-8.595,-8.5949,-8.5948,-8.5947,-8.5947,0,-8.4542,-8.461,-8.4754,-8.491,-8.5033,-8.4992,-8.5112,-8.5217,-8.5379,-8.548,-8.5608,-8.5798,-8.5951,-8.6022,-8.6172,-8.6272,-8.626,-8.6311,-8.6304,-8.6319,-8.6018,-8.5966,-8.6317,-8.6317,-8.6317,-8.6317,-8.6317,-8.6317,-8.4752,-8.4968,-8.4994,-8.5252,-8.5318,-8.5497,-8.5569,-8.5665,-8.5746,-8.5961,-8.6089,-8.6134,-8.6224,-8.638,-8.6518,-8.6535,-8.6592,-8.665,-8.666,-8.6377,-8.634,-8.6304,-8.6256,-8.6662,-8.6663,-8.6949,-8.6952,-8.6954]}]]